{"data":{"norad_id":36868,"intl_designator":"2010-039A","name":"AEHF-1 (USA 214)","alt_names":[],"object_type":"PAYLOAD","status":"ACTIVE","operator":null,"country":"US","launch_date":"2010-08-14","launch_site_code":"AFETR","launch_vehicle":null,"mission":null,"orbit_class":"UNKNOWN","rcs_meters":7.9433,"size_class":null,"mass_kg":null,"dimensions":null,"purposes":["comms"],"wikipedia_slug":null,"has_3d_model":false,"image_url":null,"decayed_at":null,"tle_current":{"epoch":"2026-05-24T22:45:09.842112Z","epoch_age_seconds":73397,"freshness":"FRESH","line1":"1 36868U 10039A   26144.94803058  .00000146  00000+0  00000+0 0  9997","line2":"2 36868   8.1640  68.3577 0004232 343.3717 202.1238  1.00277383 53420","mean_motion":1.00277383,"eccentricity":0.0004232,"inclination_deg":8.164,"raan_deg":68.3577,"arg_perigee_deg":343.3717,"mean_anomaly_deg":202.1238,"bstar":0,"rev_number":5342,"period_min":1436.0167337036,"perigee_km":35767.182261125,"apogee_km":35802.869162044,"semimajor_km":42163.162711584,"source":"CELESTRAK","updated_at":"2026-05-25T13:38:13.895254Z"}}}